Location: Demmingen
(48.6757°N, 10.4375°E)
Time: 02:41:34
(UTC+00:00)

Cosmos 1455 - Pass Details

Date: 23 May 2024
Orbit: 445 x 460 km, 82.5° (Epoch: 19 June)

Event Time Altitude Azimuth Distance (km) Brightness Sun altitude
Rises 00:27:34 0° 354° (N) 2,460 6.8 -18.8°
Reaches altitude 10° 00:29:41 10° 360° (N) 1,585 5.8 -18.7°
Maximum altitude 00:33:04 51° 78° (ENE) 571 2.5 -18.5°
Enters shadow 00:34:14 34° 134° (SE) 768 2.8 -18.5°
